When you browse on this site, cookies collect data to enhance your experience and personalize the content and advertising you see.
Visit our Privacy Policy to learn more. By continuing to use the site, you agree to this use of cookies and data.
  • en Suisse
  • Liste des pays
  • À 7 jours
  • Température de l'eau
  • Carte satellitaire
  • Carte météo
  • Widgets météo
  • user-avatar
    Se connecter

    Météo par heure à Verhniy Tabyn

    Ce jour, 25 Juin, Mardi

    Heure Température Précipitation Vent Pression Humidité
    00:00 +18°C° 0 mm 2 m/s 751 mmHg 76%
    01:00 +17°C° 0 mm 3 m/s 750 mmHg 77%
    02:00 +17°C° 0 mm 3 m/s 750 mmHg 79%
    03:00 +16°C° 0 mm 3 m/s 750 mmHg 81%
    04:00 +16°C° 0 mm 2 m/s 751 mmHg 88%
    05:00 +17°C° 0 mm 2 m/s 751 mmHg 84%
    06:00 +17°C° 0 mm 2 m/s 751 mmHg 81%
    07:00 +18°C° 0 mm 3 m/s 751 mmHg 77%
    08:00 +19°C° 0.2 mm 3 m/s 751 mmHg 75%
    09:00 +19°C° 0.2 mm 4 m/s 751 mmHg 72%
    10:00 +20°C° 0.2 mm 5 m/s 752 mmHg 70%
    11:00 +20°C° 0.4 mm 5 m/s 752 mmHg 66%
    12:00 +21°C° 0.4 mm 5 m/s 752 mmHg 62%
    13:00 +21°C° 0.4 mm 5 m/s 752 mmHg 58%
    14:00 +21°C° 0 mm 5 m/s 752 mmHg 57%
    15:00 +22°C° 0 mm 5 m/s 753 mmHg 55%
    16:00 +22°C° 0 mm 5 m/s 753 mmHg 54%
    17:00 +21°C° 0.2 mm 4 m/s 753 mmHg 61%
    18:00 +20°C° 0.2 mm 4 m/s 753 mmHg 67%
    19:00 +19°C° 0.2 mm 4 m/s 753 mmHg 74%
    20:00 +17°C° 0 mm 3 m/s 753 mmHg 77%
    21:00 +16°C° 0 mm 3 m/s 753 mmHg 81%
    22:00 +13°C° 0 mm 3 m/s 753 mmHg 84%
    23:00 +14°C° 0 mm 2 m/s 753 mmHg 87%

    Demain, 26 Juin, Mercredi

    Heure Température Précipitation Vent Pression Humidité
    00:00 +13°C° 0 mm 2 m/s 753 mmHg 89%
    01:00 +13°C° 0 mm 2 m/s 752 mmHg 91%
    02:00 +12°C° 0 mm 2 m/s 752 mmHg 92%
    03:00 +12°C° 0 mm 2 m/s 753 mmHg 94%
    04:00 +12°C° 0 mm 2 m/s 753 mmHg 95%
    05:00 +11°C° 0.1 mm 3 m/s 753 mmHg 93%
    06:00 +12°C° 0.1 mm 3 m/s 752 mmHg 90%
    07:00 +13°C° 0.1 mm 3 m/s 752 mmHg 88%
    08:00 +14°C° 0.9 mm 3 m/s 752 mmHg 83%
    09:00 +16°C° 0.9 mm 3 m/s 752 mmHg 78%
    10:00 +18°C° 0.9 mm 4 m/s 752 mmHg 73%
    11:00 +18°C° 1.4 mm 4 m/s 752 mmHg 72%
    12:00 +18°C° 1.4 mm 4 m/s 751 mmHg 71%
    13:00 +17°C° 1.4 mm 5 m/s 751 mmHg 70%
    14:00 +18°C° 0.7 mm 4 m/s 751 mmHg 68%
    15:00 +19°C° 0.7 mm 4 m/s 751 mmHg 66%
    16:00 +19°C° 0.7 mm 3 m/s 751 mmHg 64%
    17:00 +18°C° 0.5 mm 3 m/s 751 mmHg 70%
    18:00 +17°C° 0.5 mm 3 m/s 751 mmHg 75%
    19:00 +16°C° 0.5 mm 3 m/s 751 mmHg 81%
    20:00 +14°C° 0.1 mm 3 m/s 751 mmHg 82%
    21:00 +13°C° 0.1 mm 3 m/s 751 mmHg 84%
    22:00 +12°C° 0.1 mm 3 m/s 751 mmHg 86%
    23:00 +12°C° 0 mm 2 m/s 750 mmHg 87%

    Après-demain, 27 Juin, Jeudi

    Heure Température Précipitation Vent Pression Humidité
    00:00 +10°C° 0 mm 2 m/s 750 mmHg 89%
    01:00 +10°C° 0 mm 2 m/s 750 mmHg 91%
    02:00 +9°C° 0 mm 2 m/s 750 mmHg 91%
    03:00 +9°C° 0 mm 2 m/s 750 mmHg 92%
    04:00 +8°C° 0 mm 2 m/s 750 mmHg 92%
    05:00 +9°C° 0 mm 2 m/s 750 mmHg 90%
    06:00 +12°C° 0 mm 2 m/s 750 mmHg 89%
    07:00 +13°C° 0 mm 2 m/s 749 mmHg 87%
    08:00 +14°C° 0 mm 2 m/s 749 mmHg 82%
    09:00 +15°C° 0 mm 2 m/s 749 mmHg 76%
    10:00 +16°C° 0 mm 2 m/s 749 mmHg 71%
    11:00 +17°C° 0.3 mm 2 m/s 748 mmHg 69%
    12:00 +18°C° 0.3 mm 3 m/s 748 mmHg 67%
    13:00 +18°C° 0.3 mm 3 m/s 748 mmHg 65%
    14:00 +18°C° 0.4 mm 3 m/s 748 mmHg 66%
    15:00 +18°C° 0.4 mm 3 m/s 748 mmHg 67%
    16:00 +18°C° 0.4 mm 3 m/s 747 mmHg 68%
    17:00 +18°C° 0.1 mm 3 m/s 747 mmHg 72%
    18:00 +17°C° 0.1 mm 3 m/s 747 mmHg 75%
    19:00 +17°C° 0.1 mm 3 m/s 747 mmHg 79%
    20:00 +15°C° 0 mm 2 m/s 747 mmHg 82%
    21:00 +14°C° 0 mm 2 m/s 747 mmHg 85%
    22:00 +12°C° 0 mm 1 m/s 746 mmHg 88%
    23:00 +12°C° 0 mm 1 m/s 746 mmHg 88%

    28 Juin, Vendredi

    Heure Température Précipitation Vent Pression Humidité
    00:00 +11°C° 0 mm 1 m/s 746 mmHg 88%
    01:00 +11°C° 0 mm 1 m/s 746 mmHg 88%
    02:00 +10°C° 0 mm 1 m/s 746 mmHg 88%
    03:00 +10°C° 0 mm 1 m/s 746 mmHg 88%
    04:00 +10°C° 0 mm 1 m/s 746 mmHg 88%
    05:00 +11°C° 0 mm 1 m/s 746 mmHg 88%
    06:00 +12°C° 0 mm 2 m/s 746 mmHg 87%
    07:00 +12°C° 0 mm 3 m/s 746 mmHg 87%
    08:00 +14°C° 0 mm 4 m/s 746 mmHg 82%
    09:00 +15°C° 0 mm 5 m/s 745 mmHg 77%
    10:00 +16°C° 0 mm 5 m/s 745 mmHg 72%
    11:00 +17°C° 0 mm 6 m/s 745 mmHg 71%
    12:00 +17°C° 0 mm 6 m/s 745 mmHg 69%
    13:00 +19°C° 0 mm 6 m/s 745 mmHg 67%
    14:00 +17°C° 0.2 mm 6 m/s 744 mmHg 74%
    15:00 +16°C° 0.2 mm 5 m/s 744 mmHg 81%
    16:00 +15°C° 0.2 mm 5 m/s 744 mmHg 87%
    17:00 +15°C° 0.1 mm 5 m/s 744 mmHg 85%
    18:00 +15°C° 0.1 mm 6 m/s 743 mmHg 84%
    19:00 +15°C° 0.1 mm 6 m/s 743 mmHg 82%
    20:00 +15°C° 0 mm 7 m/s 742 mmHg 79%
    21:00 +15°C° 0 mm 7 m/s 742 mmHg 77%
    22:00 +15°C° 0 mm 8 m/s 742 mmHg 75%
    23:00 +15°C° 0.2 mm 7 m/s 742 mmHg 77%

    29 Juin, Samedi

    Heure Température Précipitation Vent Pression Humidité
    00:00 +15°C° 0.2 mm 7 m/s 741 mmHg 80%
    01:00 +15°C° 0.2 mm 6 m/s 741 mmHg 83%
    02:00 +15°C° 0.2 mm 7 m/s 741 mmHg 82%
    03:00 +15°C° 0.2 mm 7 m/s 741 mmHg 80%
    04:00 +15°C° 0.2 mm 7 m/s 740 mmHg 79%
    05:00 +16°C° 0.1 mm 8 m/s 740 mmHg 79%
    06:00 +16°C° 0.1 mm 8 m/s 740 mmHg 79%
    07:00 +16°C° 0.1 mm 9 m/s 740 mmHg 79%
    08:00 +17°C° 0.2 mm 9 m/s 741 mmHg 79%
    09:00 +17°C° 0.2 mm 9 m/s 741 mmHg 80%
    10:00 +17°C° 0.2 mm 8 m/s 741 mmHg 80%
    11:00 +17°C° 0.6 mm 8 m/s 741 mmHg 83%
    12:00 +17°C° 0.6 mm 7 m/s 741 mmHg 86%
    13:00 +17°C° 0.6 mm 7 m/s 741 mmHg 88%
    14:00 +17°C° 0.7 mm 7 m/s 742 mmHg 88%
    15:00 +18°C° 0.7 mm 7 m/s 742 mmHg 88%
    16:00 +18°C° 0.7 mm 8 m/s 742 mmHg 87%
    17:00 +19°C° 0.1 mm 6 m/s 742 mmHg 87%
    18:00 +19°C° 0.1 mm 5 m/s 742 mmHg 88%
    19:00 +19°C° 0.1 mm 3 m/s 742 mmHg 88%
    20:00 +18°C° 0 mm 3 m/s 742 mmHg 89%
    21:00 +17°C° 0 mm 3 m/s 743 mmHg 91%
    22:00 +16°C° 0 mm 3 m/s 743 mmHg 93%
    23:00 +16°C° 0 mm 3 m/s 743 mmHg 93%

    30 Juin, Dimanche

    Heure Température Précipitation Vent Pression Humidité
    00:00 +16°C° 0 mm 3 m/s 743 mmHg 93%
    01:00 +16°C° 0 mm 2 m/s 743 mmHg 93%
    02:00 +16°C° 0.1 mm 2 m/s 743 mmHg 93%
    03:00 +16°C° 0.1 mm 2 m/s 743 mmHg 93%
    04:00 +16°C° 0.1 mm 2 m/s 743 mmHg 93%
    05:00 +16°C° 0.4 mm 2 m/s 743 mmHg 93%
    06:00 +16°C° 0.4 mm 3 m/s 743 mmHg 94%
    07:00 +17°C° 0.4 mm 3 m/s 744 mmHg 94%
    08:00 +18°C° 0.1 mm 4 m/s 744 mmHg 89%
    09:00 +19°C° 0.1 mm 4 m/s 744 mmHg 85%
    10:00 +20°C° 0.1 mm 4 m/s 744 mmHg 80%
    11:00 +21°C° 0.4 mm 4 m/s 745 mmHg 78%
    12:00 +21°C° 0.4 mm 3 m/s 745 mmHg 76%
    13:00 +22°C° 0.4 mm 3 m/s 745 mmHg 75%
    14:00 +22°C° 0.3 mm 3 m/s 745 mmHg 73%
    15:00 +23°C° 0.3 mm 2 m/s 745 mmHg 70%
    16:00 +24°C° 0.3 mm 2 m/s 745 mmHg 68%
    17:00 +23°C° 0.3 mm 2 m/s 745 mmHg 73%
    18:00 +23°C° 0.3 mm 2 m/s 745 mmHg 78%
    19:00 +23°C° 0.3 mm 2 m/s 745 mmHg 83%
    20:00 +20°C° 0.5 mm 2 m/s 745 mmHg 86%
    21:00 +19°C° 0.5 mm 2 m/s 745 mmHg 89%
    22:00 +18°C° 0.5 mm 1 m/s 745 mmHg 91%
    23:00 +18°C° 0.1 mm 1 m/s 745 mmHg 92%
    Voir plus